Regional Weather Roundup
Issued by NWS Midland/Odessa, TX

Home | Current Version | Previous Version | Text Only | Print | Product List | Glossary On
Versions: 1 2 3 4 5 6 7 8 9 10 11 12 13 14 15 16 17 18 19 20 21 22 23 24 25 26 27 28 29 30 31 32 33 34 35 36 37 38 39 40 41 42 43 44 45 46 47 48 49 50
000
ASUS44 KMAF 291510
RWRMAF
MIDLAND AREA WEATHER ROUNDUP
NATIONAL WEATHER SERVICE MIDLAND TX
1000 AM CDT FRI APR 29 2016

...IN SOUTHWEST TEXAS AND SOUTHEAST NEW MEXICO...

CITY           SKY/WX    TMP DP  RH WIND       PRES   REMARKS
ALPINE         SUNNY     69  30  23 NW13      29.93S
ANDREWS        FAIR      71  40  32 NW15G22   29.78R
ARTESIA        SUNNY     68  23  18 W22       29.81S
BIG SPRING     SUNNY     75  41  29 SW21      29.76R
CARLSBAD       SUNNY     70  27  20 W18G26    29.81R
DRYDEN           N/A     78  66  66 N10       29.72S
FORT STOCKTON  SUNNY     74  32  21 NW21G30   29.81R
GUAD PASS      SUNNY     58  20  22 W37G46    29.87R
HOBBS          SUNNY     68  37  32 W14G21    29.80R
MARFA          SUNNY     65  30  27 NW16      29.92R
MIDLAND AIRPK  SUNNY     77  32  19 W22G28    29.77R
MIDLAND INTL   SUNNY     76  32  20 W18G28    29.76S
ODESSA         SUNNY     76  33  21 NW15      29.78R
PECOS          SUNNY     74  30  19 W22G29    29.80S
PRESIDIO       FAIR      76  32  20 W10       29.81R
SEMINOLE       SUNNY     70  42  35 NW18G26   29.78S
SNYDER           N/A     76  58  53 SW22G28   29.70R
WINK           SUNNY     74  32  21 NW18      29.78R
$$
...OTHER STATIONS IN TEXAS...

CITY           SKY/WX    TMP DP  RH WIND       PRES   REMARKS
ABILENE        PTSUNNY   74  66  76 S18       29.69R
AMARILLO       CLOUDY    48  46  93 NE25      29.77S
AUSTIN         CLOUDY    79  74  84 S17       29.70S FOG
BROWNSVILLE    CLOUDY    80  76  87 S18G26    29.70S
CORPUS CHRISTI CLOUDY    80  74  81 SE25G33   29.70R
DALLAS FTW     CLOUDY    77  71  82 S7        29.70S
DEL RIO        CLOUDY    75  73  93 E16       29.67S FOG
EL PASO        SUNNY     60  20  21 W21       29.89S
HOUSTON INT    PTSUNNY   78  70  76 S16G22    29.76S
LUBBOCK        MOSUNNY   70  57  63 NW28G33   29.70R
SAN ANGELO     CLOUDY    77  68  73 SW16      29.71S
SAN ANTONIO    CLOUDY    78  72  81 S12       29.72S
WACO           CLOUDY    80  73  79 S15       29.70S HAZE
WICHITA FALLS  NOT AVBL
$$
...OTHER LOCATIONS IN NEW MEXICO...

CITY           SKY/WX    TMP DP  RH WIND       PRES   REMARKS
ALAMAGORDO     SUNNY     61  12  15 W15G21    29.87S
ALBUQUERQUE    MOSUNNY   46  39  76 S5        29.87R
CANNON AFB     CLOUDY    50  46  87 N20       29.80R
CLOVIS         CLOUDY    48  45  87 N18       29.82R
HOLLOMAN AFB   SUNNY     60  17  18 W14       29.86R
ROSWELL        SUNNY     63  45  51 NE8       29.80R
RUIDOSO          N/A     50  10  20 W18       29.89S
SANTA FE       MOSUNNY   42  37  82 N10       29.86R WCI  36
TRUTH OR CONSE SUNNY     56  17  21 NW12G17   29.88R
TUCUMCARI      CLOUDY    49  44  83 N10       29.83R
$$




USA.gov is the U.S. government's official web portal to all federal, state and local government web resources and services.